FLOCK 3R-8 (43727 NORAD) Tracking and Keplerian Element Data

This shows tracking and keplerian element data for the satellite.

Feedback or suggestion? Click here.




ElementValue
Catalog43727
NameFLOCK 3R-8
Epoch Orbit172
Epoch Day344.50524034
Epoch Year2018
RAAN49.5095
Inclination97.4843
Eccentricity0.0017081
Argument of Perigee286.1012
Mean Anonmoly73.8345
Mean Motion15.26097773
Decay Rate2.72E-05
L11 43727U 18096J 18344.50524034 .00002720 00000-0 10801-3 0 9994
L22 43727 97.4843 49.5095 0017081 286.1012 73.8345 15.26097773 1726

Live tracking and technical data element details for FLOCK 3R-8 (NORAD 43727). FLOCK 3R-8 can be tracked NOW for your location showing map with azimuth and elevation plus other details from your city location.

Track the satellite on the map from your city or location and see movement details for azimuth, elevation, latitude, longitude, range, height, and movement on the map or in text.







IsCatalogInMostPopularTable: catalog: 43727, numindb: 6
Update: records affected: 1



GetName: 43727 FLOCK 3R-8

Hit Count: updated at: Tue, 11 Dec 2018 01:55:04 GMT